Location: Granada
(37.1830°N, 3.6000°W)
Time: 18:47:35
(UTC+01:00)

Iridium 70 - Visible Passes

Search period start: 10 February 2016 00:00
Search period end: 20 February 2016 00:00
Orbit: 776 x 779 km, 86.4° (Epoch: 09 February)

Date Brightness Start Highest point End Pass type
(mag) Time Alt. Az. Time Alt. Az. Time Alt. Az.
10 Feb 8.6 06:57:45 10° NE 07:00:09 13° ENE 07:02:33 10° ESE visible
10 Feb 6.3 19:50:48 10° SE 19:55:13 29° E 19:59:40 10° NNE visible
10 Feb 7.4 21:31:26 10° SW 21:35:51 28° W 21:40:18 10° NNW visible
11 Feb 7.0 19:19:00 10° ESE 19:21:59 16° E 19:24:58 10° NE visible
11 Feb 6.2 20:57:07 10° SSW 21:02:10 52° W 21:07:16 10° N visible
12 Feb 7.3 07:29:24 10° NNE 07:34:12 36° E 07:38:57 10° SSE visible
12 Feb 5.4 20:23:26 10° S 20:28:38 82° E 20:33:52 10° N visible
13 Feb 8.3 06:56:44 10° NNE 07:00:27 19° ENE 07:04:08 10° ESE visible
13 Feb 5.8 19:50:20 10° SSE 19:55:13 42° E 20:00:06 10° NNE visible
13 Feb 8.0 21:32:26 10° WSW 21:36:05 19° WNW 21:39:46 10° NNW visible
14 Feb 6.6 19:17:54 10° SE 19:21:54 23° E 19:25:54 10° NNE visible
14 Feb 7.1 20:57:36 10° SSW 21:02:20 35° W 21:07:07 10° NNW visible
15 Feb 6.5 07:29:15 10° N 07:34:21 53° E 07:39:26 10° SSE visible
15 Feb 5.8 20:23:33 10° S 20:28:43 68° W 20:33:56 10° N visible
16 Feb 7.8 06:56:14 10° NNE 07:00:42 28° E 07:05:08 10° SE visible
16 Feb 5.5 19:50:06 10° S 19:55:14 63° E 20:00:23 10° N visible
16 Feb 8.6 21:34:03 10° WSW 21:36:23 13° WNW 21:38:44 10° NW visible
17 Feb 8.5 06:23:55 10° NE 06:26:53 15° ENE 06:29:50 10° ESE visible
17 Feb 6.2 19:17:14 10° SSE 19:21:51 33° E 19:26:28 10° NNE visible
17 Feb 7.8 20:58:21 10° SW 21:02:34 24° W 21:06:46 10° NNW visible
18 Feb 5.8 07:29:15 10° N 07:34:29 79° E 07:39:41 10° S visible
18 Feb 6.6 20:23:53 10° SSW 20:28:52 46° W 20:33:52 10° N visible
19 Feb 7.0 06:55:58 10° NNE 07:00:53 41° E 07:05:47 10° SSE visible
19 Feb 5.6 19:50:05 10° S 19:55:18 87° W 20:00:32 10° N visible
